Hourly Data Report for June 08, 2020

OTTAWA INTL A
ONTARIO
Current Station Operator: NAVCAN

45°19'00.000" N
75°40'00.000" W
114.90 m
6106001
71628
YOW

Download Data

Hourly Data (June 2020)
Hourly Data Report for June 8, 2020
TIME Temp Definition
°C
Dew Point Definition
°C
Rel Hum Definition
%
Wind Dir Definition
10's deg

Wind Spd Definition
km/h
Visibility Definition
km
Stn Press Definition
kPa
Hmdx Definition


Wind Chill Definition


Weather Definition


00:00 14.0 4.1 51 33 12 24.1 100.29     LegendNANA
01:00 13.3 4.1 53 33 13 24.1 100.31     Mainly Clear
02:00 12.1 4.5 60 31 11 24.1 100.34     LegendNANA
03:00 10.4 3.9 64 27 9 24.1 100.35     LegendNANA
04:00 10.3 4.4 67 28 13 24.1 100.41     Mainly Clear
05:00 9.6 5.4 75 25 7 24.1 100.47     LegendNANA
06:00 12.6 5.1 60 32 10 24.1 100.52     LegendNANA
07:00 14.4 4.3 50 36 18 24.1 100.57     Mainly Clear
08:00 15.9 4.3 46 33 15 24.1 100.58     LegendNANA
09:00 16.7 5.2 46 35 12 24.1 100.53     LegendNANA
10:00 18.0 4.3 40 32 26 24.1 100.48     Mostly Cloudy
11:00 18.9 5.1 40 32 16 24.1 100.45     LegendNANA
12:00 20.2 6.9 42 26 17 24.1 100.40     LegendNANA
13:00 20.5 6.2 39 31 15 24.1 100.36     Mostly Cloudy
14:00 21.5 4.9 33 28 12 24.1 100.27     LegendNANA
15:00 22.1 6.6 36 24 12 24.1 100.24     LegendNANA
16:00 21.4 6.8 39 29 13 24.1 100.17     Mostly Cloudy
17:00 21.3 6.9 39 26 14 24.1 100.11     LegendNANA
18:00 20.9 7.9 43 27 10 24.1 100.06     LegendNANA
19:00 20.3 7.2 42 30 10 24.1 100.06     Mostly Cloudy
20:00 18.9 7.6 48 36 3 24.1 100.01     LegendNANA
21:00 17.7 9.1 57 16 12 24.1 100.04     LegendNANA
22:00 17.7 10.0 60 18 8 24.1 100.03     Cloudy
23:00 16.9 9.9 63 18 7 24.1 99.93     LegendNANA

Notes on Data Quality.

Legend

  • E = Estimated
  • M = Missing
  • NA = Not Available*
  • [empty] = Indicates an unobserved value
Date modified: